Location: Nickerson Gardens
(33.9320°N, 118.2484°W)
Time: 07:41:47
(UTC+00:00)

Cosmos 1300 - Pass Details

Date: 29 October 2020
Orbit: 511 x 513 km, 82.5° (Epoch: 28 November)

Event Time Altitude Azimuth Distance (km) Brightness Sun altitude
Exits shadow 12:45:46 - 350° (N) 2,472 6.0 -18.1°
Reaches altitude 10° 12:47:32 10° 348° (NNW) 1,740 5.2 -17.7°
Maximum altitude 12:51:19 68° 266° (W) 555 2.5 -16.9°
Drops below altitude 10° 12:55:04 10° 183° (S) 1,725 5.4 -16.1°
Sets 12:57:11 0° 180° (S) 2,606 6.4 -15.7°
